STARLINK-1041 (44746 NORAD) Tracking and Keplerian Element Data

This shows tracking and keplerian element data for the satellite.

Feedback or suggestion? Click here.




ElementValue
Catalog44746
NameSTARLINK-1041
Epoch Orbit1035
Epoch Day17.91667824
Epoch Year2020
RAAN214.8182
Inclination53.0037
Eccentricity0.0001553
Argument of Perigee79.8038
Mean Anonmoly220.1955
Mean Motion15.05555242
Decay Rate0.00021341
L11 44746U 19074AK 20017.91667824 .00021341 00000-0 14804-2 0 9999
L22 44746 53.0037 214.8182 0001553 79.8038 220.1955 15.05555242 10357

Live tracking and technical data element details for STARLINK-1041 (NORAD 44746). STARLINK-1041 can be tracked NOW for your location showing map with azimuth and elevation plus other details from your city location.

Track the satellite on the map from your city or location and see movement details for azimuth, elevation, latitude, longitude, range, height, and movement on the map or in text.







IsCatalogInMostPopularTable: catalog: 44746, numindb: 12
Update: records affected: 1



GetName: 44746 STARLINK-1041

Hit Count: updated at: Sat, 18 Jan 2020 18:10:17 GMT